Tracking 31027 objects as of 19-Jul-2025
HD Live streaming from Space Station
objects crossing your sky now

COSMOS 1375 DEB

Track COSMOS 1375 DEB now!
10-day predictions


NORAD ID: 17797
Int'l Code: 1982-055AP
Perigee: 925.9 km
Apogee: 941.5 km
Inclination: 65.8 °
Period: 103.6 minutes
Semi major axis: 7304 km
RCS: 0.0324 m2 (small)
Launch date: June 6, 1982
Source: Commonwealth of Independent States (former USSR) (CIS)
Launch site: PLESETSK MISSILE AND SPACE COMPLEX (PKMTR)

Note: This is SATELLITE DEBRIS
Your satellite tracking list
FENGYUN 1C DEB
Track 1 satellite(s)




NASA's NSSDC Master Catalog

Two Line Element Set (TLE):
1 17797U 82055AP  25199.05969440  .00000493  00000-0  46255-3 0  9995
2 17797  65.8264  62.5819 0010677 327.7803 183.7984 13.90589783  5307
Source of the keplerian elements: AFSPC